Weather in Nikolayevka

Russia / Samara Oblast     53°05′25″N   50°18′47″E
temp.,
°C
wind,
m/s
gust,
m/s
humid.,
%
clouds,
%
prec.,
mm/h
press.,
hPa
HPBL,
m
25 february, thu
thu2501:00−27nnw23930 0.0 103621
04:00−28w229339 0.0 103619
07:00−28wsw229550 0.0 103519
10:00−24ssw239367 0.0 1034120
13:00−20s4789100 0.0 1032282
16:00−18s71192100 0.1 1028381
19:00−17s71395100 1.3 1025553
22:00−16s71295100 2.8 1022611
26 february, fri
fri2601:00−14s71294100 1.5 1019593
04:00−13sse61194100 2.5 1018516
07:00−12sse5995100 0.5 1016374
10:00−11sse5894100 0.9 1016380
13:00−10sse5792100 0.2 1015446
16:00−9se4792100 0.3 1015473
19:00−10se51094100 0.1 1012317
22:00−9sse81394100 0.6 1009327
27 february, sat
sat2701:00−6sse81495100 3.5 1003351
04:00+1ssw59100100 6.6 1001228
07:00+1w51098100 0.3 999440
10:000w5119985 0.3 1000559
13:00+1wsw51010096 0.0 1000531
16:00+1wsw4910097 0.1 1000438
19:00−2sw479492 0.0 1000115
22:00−1sw489897 0.1 1001303
28 february, sun
sun2801:000sw4898100 0.4 1000378
04:00−2sw4896100 0.6 1000275
07:00−3sw4797100 0.3 1001220
10:00−2wsw3597100 0.9 1002267
13:00−2n3597100 0.7 1004288
16:00−6n4694100 0.9 1006385
19:00−10nnw489499 0.1 1008311
22:00−13nnw489598 0.2 1011206
1 march, mon
mon101:00−14nnw499687 0.1 1013273
04:00−15nnw499591 0.1 1014271
07:00−16nnw4995100 0.1 1017327
10:00−17n589395 0.1 1018315
13:00−14n579176 0.0 1020405
16:00−13n479084 0.0 1021449
19:00−17nnw339593 0.0 102343
22:00−20nw239753 0.0 102420